Tracking 35275 objects as of 9-Sep-2026
HD Live streaming from Space Station
objects crossing your sky now

STARLINK-3991

Track STARLINK-3991 now!
10-day predictions
STARLINK-3991 is classified as:


NORAD ID: 52641
Int'l Code: 2022-052AV
Launch date: May 14, 2022
Source: United States (US)
Launch site: AIR FORCE EASTERN TEST RANGE (AFETR)
Your satellite tracking list
Your tracking list is empty




NASA's NSSDC Master Catalog

Two Line Element Set (TLE):
1 52641U 22052AV  26249.99510243 -.00000110  00000-0  82297-5 0  9991
2 52641  53.1594 153.7823 0001444  89.0812 271.0355 15.31695941238669
Source of the keplerian elements: AFSPC